Regional Weather Roundup
Issued by NWS

Home | Current Version | Previous Version | Graphics & Text | Print | Product List | Glossary On
Versions: 1 2 3 4 5 6 7 8 9 10 11 12 13 14 15 16 17 18 19 20 21 22 23 24 25 26 27 28 29 30 31 32 33 34 35 36 37 38 39 40 41 42 43 44 45 46 47 48 49 50
000
ASUS43 KBIS 251802
RWRND

NORTH DAKOTA REGIONAL WEATHER ROUNDUP
NATIONAL WEATHER SERVICE BISMARCK ND
100 PM CDT SAT MAR 25 2017

NOTE: "FAIR" INDICATES FEW OR NO CLOUDS BELOW 12,000 FEET WITH NO
SIGNIFICANT WEATHER AND/OR OBSTRUCTIONS TO VISIBILITY.


NDZ001>003-009>011-017-251900-
NORTHWEST NORTH DAKOTA

CITY           SKY/WX    TMP DP  RH WIND       PRES   REMARKS
WILLISTON      PTSUNNY   57  33  40 W12       29.89R
6HR MIN TEMP:  42; 6HR MAX TEMP:  58;

MINOT          CLOUDY    39  32  76 S13       29.93R
MINOT AFB      FAIR      38  33  83 S13       29.91F
$$

NDZ018>021-031>035-040>046-251900-
SOUTHWEST NORTH DAKOTA

CITY           SKY/WX    TMP DP  RH WIND       PRES   REMARKS
BISMARCK       CLOUDY    39  33  79 SE14      30.03F
6HR MIN TEMP:  31; 6HR MAX TEMP:  39;

DICKINSON      FAIR      52  33  48 SW13      29.91R
GARRISON         N/A     37  32  82 S12       29.95S
6HR MIN TEMP:  30; 6HR MAX TEMP:  37;

HETTINGER ARPT FAIR      50  33  52 S12       29.94F
$$

NDZ004>008-012>016-024-026-027-054-251900-
NORTHEAST NORTH DAKOTA

CITY           SKY/WX    TMP DP  RH WIND       PRES   REMARKS
GRAND FORKS    CLOUDY    37  33  85 S16G25    30.14F
GRND FRKS AFB  CLOUDY    36  32  85 S18       30.13F
DEVILS LAKE    CLOUDY    35  31  85 S18G24    30.07F
$$

NDZ022-023-025-028>030-036>039-047>053-251900-
SOUTHEAST NORTH DAKOTA

CITY           SKY/WX    TMP DP  RH WIND       PRES   REMARKS
FARGO          CLOUDY    36  32  85 S12       30.15F
6HR MIN TEMP:  29; 6HR MAX TEMP:  36;

JAMESTOWN      CLOUDY    37  32  82 S17G24    30.07F
$$




USA.gov is the U.S. government's official web portal to all federal, state and local government web resources and services.